Theta_e
321 322 322 323 325 335 337 339 343 342 343 341 340 341 342 341 343 341 341 339 336 340
319 322 323 323 325 326 336 341 340 342 341 341 336 338 346 343 343 344 344 342 339 337
314 318 319 320 323 325 328 338 340 341 342 341 341 343 346 345 344 343 345 343 341 339
312 317 317 320 324 325 327 333 338 341 341 340 339 341 342 343 342 342 341 343 341 340
312 314 313 319 321 322 324 328 333 339 339 338 336 325 324 333 340 330 338 340 340 339
307 311 312 316 316 318 323 327 332 335 330 326 331 323 324 323 323 324 321 332 336 336
305 306 311 315 315 317 318 319 326 324 322 321 322 323 325 323 322 320 320 324 331 333
305 306 307 310 315 316 317 320 324 321 319 318 319 322 322 321 321 319 320 326 332 334
302 304 305 307 312 313 315 317 322 319 321 316 322 311 311 320 326 330 331 330 331 326
302 302 303 305 308 312 311 312 315 316 322 317 319 307 307 313 328 329 329 330 321 320
301 301 302 303 306 311 310 311 313 314 320 319 323 306 307 307 323 327 326 323 320 317
300 300 301 302 303 308 311 313 312 315 317 318 320 308 303 308 324 325 323 323 320 318
299 300 300 301 303 308 312 313 315 315 316 318 321 305 304 314 325 321 320 319 317 311
298 298 301 301 302 303 309 312 313 313 314 316 315 308 306 311 322 320 318 317 314 313
Wind_Speed
8 5 5 7 10 9 11 14 14 14 16 17 15 28 16 14 13 17 17 18 14 9
7 8 8 9 11 12 12 13 17 13 19 21 26 29 25 14 16 16 15 15 12 8
6 8 7 6 9 15 17 16 19 19 16 22 23 21 22 18 18 17 12 11 13 10
7 7 7 6 7 10 15 18 20 21 18 16 20 22 18 17 17 18 20 18 17 17
8 7 7 6 7 11 14 20 22 20 18 13 15 8 11 17 21 9 19 24 15 15
12 9 8 8 7 9 13 19 20 17 10 3 11 5 9 11 5 5 4 21 6 13
9 11 14 10 6 4 9 14 21 7 9 10 11 13 13 16 10 10 6 15 8 21
15 14 11 14 8 2 4 8 13 8 9 9 8 8 13 13 15 20 22 24 24 13
17 17 14 12 12 5 5 5 3 7 13 10 7 10 10 14 14 14 17 16 10 7
18 17 16 13 13 6 4 4 3 3 7 11 11 18 9 14 9 10 13 14 10 10
15 16 16 12 10 10 4 5 6 5 3 10 10 19 27 19 10 9 14 12 10 9
15 16 13 12 12 13 6 5 5 6 9 12 17 21 17 14 13 12 11 12 11 11
16 14 11 14 7 7 6 8 3 3 10 16 26 25 19 20 12 13 9 10 11 16
14 14 12 10 8 5 6 6 6 3 6 19 25 21 24 20 13 12 11 9 8 6
Wind_Direction
283 252 249 270 284 265 253 254 248 224 215 196 180 266 249 234 227 219 214 206 207 194
276 264 269 281 282 280 267 253 251 224 208 205 206 219 224 218 220 223 214 207 202 199
282 279 278 295 282 285 279 259 254 245 228 220 216 219 219 215 213 218 213 195 182 188
273 266 280 279 295 298 297 275 257 252 244 225 220 224 226 222 217 215 214 204 188 192
266 250 258 267 280 289 293 288 262 254 251 238 229 247 271 267 248 329 249 215 202 199
316 271 253 242 254 293 297 300 271 258 221 184 209 135 93 73 310 318 319 291 206 221
307 307 308 275 252 295 318 301 303 179 180 167 165 166 175 169 174 113 81 270 313 253
302 301 305 306 283 296 303 307 298 193 175 182 194 177 165 160 161 165 174 222 228 207
288 289 297 300 298 297 261 318 336 229 178 175 190 195 201 167 172 174 203 224 195 169
274 281 280 290 303 278 268 233 236 297 245 209 208 168 180 221 208 173 201 197 155 153
278 278 279 278 282 262 247 239 229 222 234 256 219 197 184 217 222 185 160 148 168 142
276 277 271 282 274 272 236 246 257 204 299 262 239 225 223 163 195 157 151 142 134 124
284 269 266 265 271 274 242 256 265 359 271 258 220 207 196 194 158 141 143 147 133 124
282 277 286 259 272 281 256 267 270 288 315 284 189 175 175 150 149 146 146 147 144 134